Wetterdaten: Woche 16.08.10 - 22.08.10 (KW33)
Datum Zeit Temp. Innen Temp. Aussen UV X Diff Temp. Feuchte Inne Feuchte Auss Sonnenschein Luftdruck Regen ab 0,1 Wind Sonnenschein T Regendauer Windben
16.08.2010 00:00 22,2 C 15,9 C 0,1 UV-I 0,0 C 63 % 95 % 0 % 1007,6 hPa 0,1 l/m 1,0 km/h (0 Bft) 0,00 h 0,15 h 0,9 km/h (0 Bft)
16.08.2010 01:00 22,3 C 15,9 C 0,1 UV-I 0,0 C 63 % 95 % 0 % 1007,3 hPa 0,2 l/m 0,2 km/h (0 Bft) 0,00 h 0,48 h 0,3 km/h (0 Bft)
16.08.2010 02:00 22,4 C 16,0 C 0,1 UV-I 0,0 C 63 % 95 % 0 % 1006,8 hPa 0,0 l/m 0,0 km/h (0 Bft) 0,00 h 0,00 h 0,0 km/h (0 Bft)
16.08.2010 03:00 22,3 C 16,0 C 0,1 UV-I 0,0 C 63 % 96 % 0 % 1006,3 hPa 0,0 l/m 0,1 km/h (0 Bft) 0,00 h 0,07 h 0,1 km/h (0 Bft)
16.08.2010 04:00 22,2 C 16,0 C 0,1 UV-I 0,0 C 64 % 96 % 0 % 1005,9 hPa 0,0 l/m 2,3 km/h (1 Bft) 0,00 h 0,00 h 3,0 km/h (1 Bft)
16.08.2010 05:00 22,0 C 15,9 C 0,1 UV-I 0,0 C 64 % 96 % 0 % 1006,2 hPa 0,0 l/m 1,7 km/h (1 Bft) 0,00 h 0,00 h 2,9 km/h (1 Bft)
16.08.2010 06:00 22,0 C 15,8 C 0,1 UV-I 0,0 C 65 % 96 % 0 % 1006,0 hPa 0,0 l/m 2,5 km/h (1 Bft) 0,00 h 0,17 h 3,1 km/h (1 Bft)
16.08.2010 07:00 22,0 C 15,6 C 0,3 UV-I 0,0 C 65 % 95 % 0 % 1006,2 hPa 0,0 l/m 0,4 km/h (0 Bft) 0,00 h 0,30 h 0,9 km/h (0 Bft)
16.08.2010 08:00 22,0 C 15,8 C 1,0 UV-I 0,3 C 65 % 95 % 10 % 1006,5 hPa 0,0 l/m 3,2 km/h (1 Bft) 0,00 h 0,25 h 5,2 km/h (1 Bft)
16.08.2010 09:00 22,4 C 16,3 C 2,2 UV-I 1,1 C 64 % 94 % 31 % 1006,9 hPa 0,0 l/m 5,2 km/h (1 Bft) 0,00 h 0,00 h 6,3 km/h (2 Bft)
16.08.2010 10:00 22,5 C 17,0 C 2,6 UV-I 1,8 C 63 % 92 % 51 % 1007,3 hPa 0,0 l/m 2,8 km/h (1 Bft) 0,00 h 0,00 h 3,0 km/h (1 Bft)
16.08.2010 11:00 22,8 C 17,9 C 3,0 UV-I 1,8 C 63 % 88 % 51 % 1007,6 hPa 0,0 l/m 3,4 km/h (1 Bft) 0,00 h 0,10 h 4,1 km/h (1 Bft)
16.08.2010 12:00 23,1 C 18,7 C 3,9 UV-I 2,4 C 63 % 84 % 70 % 1007,8 hPa 0,0 l/m 3,9 km/h (1 Bft) 0,13 h 0,00 h 5,1 km/h (1 Bft)
16.08.2010 13:00 23,2 C 19,4 C 3,8 UV-I 2,5 C 62 % 81 % 72 % 1007,7 hPa 0,0 l/m 2,6 km/h (1 Bft) 0,05 h 0,00 h 2,9 km/h (1 Bft)
16.08.2010 14:00 23,2 C 19,3 C 2,0 UV-I 1,2 C 61 % 80 % 35 % 1007,9 hPa 0,0 l/m 0,4 km/h (0 Bft) 0,00 h 0,00 h 0,5 km/h (0 Bft)
16.08.2010 15:00 23,2 C 19,7 C 3,0 UV-I 2,1 C 61 % 79 % 60 % 1008,1 hPa 0,0 l/m 0,2 km/h (0 Bft) 0,07 h 0,00 h 0,4 km/h (0 Bft)
16.08.2010 16:00 23,4 C 20,3 C 2,9 UV-I 2,4 C 61 % 76 % 68 % 1008,2 hPa 0,0 l/m 0,7 km/h (0 Bft) 0,27 h 0,00 h 0,9 km/h (0 Bft)
16.08.2010 17:00 23,6 C 20,0 C 1,3 UV-I 0,8 C 60 % 77 % 24 % 1008,1 hPa 0,0 l/m 1,9 km/h (1 Bft) 0,00 h 0,00 h 2,3 km/h (1 Bft)
16.08.2010 18:00 23,4 C 19,8 C 1,1 UV-I 0,5 C 61 % 78 % 16 % 1008,1 hPa 0,0 l/m 1,8 km/h (1 Bft) 0,00 h 0,03 h 1,8 km/h (1 Bft)
16.08.2010 19:00 23,4 C 19,8 C 0,7 UV-I 0,3 C 61 % 78 % 9 % 1007,8 hPa 0,0 l/m 0,4 km/h (0 Bft) 0,00 h 0,00 h 0,5 km/h (0 Bft)
16.08.2010 20:00 23,2 C 19,4 C 0,3 UV-I 0,0 C 61 % 80 % 0 % 1007,7 hPa 0,0 l/m 0,2 km/h (0 Bft) 0,00 h 0,15 h 0,3 km/h (0 Bft)
16.08.2010 21:00 23,1 C 18,2 C 0,1 UV-I 0,0 C 63 % 85 % 0 % 1008,2 hPa 0,0 l/m 0,0 km/h (0 Bft) 0,00 h 0,13 h 0,0 km/h (0 Bft)
16.08.2010 22:00 22,8 C 17,5 C 0,1 UV-I 0,0 C 64 % 89 % 0 % 1008,0 hPa 0,0 l/m 0,0 km/h (0 Bft) 0,00 h 0,55 h 0,0 km/h (0 Bft)
16.08.2010 23:00 22,7 C 17,2 C 0,1 UV-I 0,0 C 65 % 91 % 0 % 1008,1 hPa 0,2 l/m 0,0 km/h (0 Bft) 0,00 h 0,38 h 0,0 km/h (0 Bft)
17.08.2010 00:00 22,7 C 16,8 C 0,1 UV-I 0,0 C 65 % 92 % 0 % 1008,1 hPa 0,0 l/m 0,0 km/h (0 Bft) 0,00 h 0,37 h 0,0 km/h (0 Bft)
17.08.2010 01:00 22,6 C 16,8 C 0,1 UV-I 0,0 C 66 % 93 % 0 % 1007,9 hPa 0,1 l/m 0,0 km/h (0 Bft) 0,00 h 0,37 h 0,1 km/h (0 Bft)
17.08.2010 02:00 22,4 C 17,2 C 0,1 UV-I 0,0 C 66 % 94 % 0 % 1007,6 hPa 0,3 l/m 0,9 km/h (0 Bft) 0,00 h 0,57 h 1,9 km/h (1 Bft)
17.08.2010 03:00 22,3 C 17,1 C 0,1 UV-I 0,0 C 68 % 94 % 0 % 1007,0 hPa 4,9 l/m 1,6 km/h (1 Bft) 0,00 h 0,80 h 2,1 km/h (1 Bft)
17.08.2010 04:00 22,1 C 16,7 C 0,1 UV-I 0,0 C 69 % 94 % 0 % 1006,6 hPa 19,0 l/m 0,9 km/h (0 Bft) 0,00 h 0,80 h 1,9 km/h (1 Bft)
17.08.2010 05:00 21,8 C 16,6 C 0,1 UV-I 0,0 C 69 % 95 % 0 % 1006,6 hPa 0,1 l/m 7,8 km/h (2 Bft) 0,00 h 0,13 h 9,0 km/h (2 Bft)
17.08.2010 06:00 21,5 C 16,3 C 0,1 UV-I 0,0 C 70 % 95 % 0 % 1006,5 hPa 0,0 l/m 6,2 km/h (2 Bft) 0,00 h 0,27 h 6,5 km/h (2 Bft)
17.08.2010 07:00 21,4 C 16,0 C 0,1 UV-I 0,0 C 70 % 96 % 0 % 1006,6 hPa 0,1 l/m 5,7 km/h (1 Bft) 0,00 h 0,20 h 6,5 km/h (2 Bft)
17.08.2010 08:00 21,2 C 15,7 C 0,6 UV-I 0,0 C 69 % 95 % 0 % 1006,9 hPa 0,0 l/m 9,8 km/h (2 Bft) 0,00 h 0,17 h 11,4 km/h (2 Bft)
17.08.2010 09:00 21,1 C 15,4 C 0,6 UV-I 0,0 C 68 % 95 % 0 % 1007,7 hPa 0,0 l/m 11,0 km/h (2 Bft) 0,00 h 0,07 h 12,8 km/h (3 Bft)
17.08.2010 10:00 21,0 C 15,4 C 1,0 UV-I 0,0 C 67 % 93 % 0 % 1007,9 hPa 0,1 l/m 10,4 km/h (2 Bft) 0,00 h 0,60 h 11,8 km/h (2 Bft)
17.08.2010 11:00 21,1 C 15,6 C 1,3 UV-I 0,1 C 67 % 94 % 2 % 1008,5 hPa 0,1 l/m 7,6 km/h (2 Bft) 0,00 h 0,42 h 8,3 km/h (2 Bft)
17.08.2010 12:00 21,2 C 16,3 C 1,9 UV-I 0,6 C 67 % 90 % 16 % 1009,1 hPa 0,0 l/m 9,4 km/h (2 Bft) 0,00 h 0,07 h 9,6 km/h (2 Bft)
17.08.2010 13:00 21,3 C 16,8 C 2,1 UV-I 0,8 C 65 % 86 % 23 % 1009,7 hPa 0,0 l/m 10,0 km/h (2 Bft) 0,00 h 0,00 h 12,3 km/h (3 Bft)
17.08.2010 14:00 21,5 C 16,7 C 1,9 UV-I 0,1 C 63 % 83 % 2 % 1009,8 hPa 0,1 l/m 7,8 km/h (2 Bft) 0,00 h 0,55 h 7,4 km/h (2 Bft)
17.08.2010 15:00 21,5 C 16,2 C 1,1 UV-I 0,0 C 62 % 80 % 0 % 1010,2 hPa 0,1 l/m 8,6 km/h (2 Bft) 0,00 h 0,13 h 9,4 km/h (2 Bft)
17.08.2010 16:00 21,6 C 16,1 C 1,8 UV-I 0,3 C 61 % 78 % 8 % 1010,4 hPa 0,0 l/m 5,0 km/h (1 Bft) 0,00 h 0,10 h 6,3 km/h (2 Bft)
17.08.2010 17:00 21,9 C 16,5 C 1,7 UV-I 0,6 C 61 % 78 % 18 % 1010,3 hPa 0,0 l/m 5,6 km/h (1 Bft) 0,00 h 0,00 h 7,4 km/h (2 Bft)
17.08.2010 18:00 21,9 C 16,3 C 0,5 UV-I 0,1 C 60 % 78 % 2 % 1010,0 hPa 0,0 l/m 8,2 km/h (2 Bft) 0,00 h 0,00 h 9,8 km/h (2 Bft)
17.08.2010 19:00 21,7 C 15,0 C 0,2 UV-I 0,0 C 60 % 85 % 0 % 1009,9 hPa 0,0 l/m 5,5 km/h (1 Bft) 0,00 h 0,07 h 4,6 km/h (1 Bft)
17.08.2010 20:00 21,4 C 14,6 C 0,2 UV-I 0,0 C 62 % 90 % 0 % 1009,4 hPa 0,0 l/m 2,9 km/h (1 Bft) 0,00 h 0,00 h 4,4 km/h (1 Bft)
17.08.2010 21:00 21,4 C 14,9 C 0,0 UV-I 0,0 C 61 % 89 % 0 % 1009,3 hPa 0,0 l/m 6,2 km/h (2 Bft) 0,00 h 0,00 h 7,4 km/h (2 Bft)
17.08.2010 22:00 21,4 C 14,8 C 0,0 UV-I 0,0 C 62 % 91 % 0 % 1009,2 hPa 0,0 l/m 5,1 km/h (1 Bft) 0,00 h 0,13 h 5,9 km/h (2 Bft)
17.08.2010 23:00 21,2 C 15,0 C 0,0 UV-I 0,0 C 63 % 92 % 0 % 1008,8 hPa 0,0 l/m 5,3 km/h (1 Bft) 0,00 h 0,03 h 6,3 km/h (2 Bft)
18.08.2010 00:00 21,2 C 15,4 C 0,0 UV-I 0,0 C 63 % 91 % 0 % 1008,5 hPa 0,0 l/m 5,7 km/h (1 Bft) 0,00 h 0,00 h 7,3 km/h (2 Bft)
18.08.2010 01:00 21,2 C 15,6 C 0,0 UV-I 0,0 C 63 % 89 % 0 % 1008,7 hPa 0,0 l/m 5,6 km/h (1 Bft) 0,00 h 0,00 h 6,5 km/h (2 Bft)
18.08.2010 02:00 21,3 C 15,6 C 0,0 UV-I 0,0 C 63 % 89 % 0 % 1008,1 hPa 0,0 l/m 5,1 km/h (1 Bft) 0,00 h 0,00 h 6,3 km/h (2 Bft)
18.08.2010 03:00 21,2 C 15,6 C 0,0 UV-I 0,0 C 64 % 89 % 0 % 1007,7 hPa 0,0 l/m 5,0 km/h (1 Bft) 0,00 h 0,00 h 6,1 km/h (2 Bft)
18.08.2010 04:00 21,2 C 15,6 C 0,0 UV-I 0,0 C 64 % 89 % 0 % 1007,4 hPa 0,0 l/m 4,3 km/h (1 Bft) 0,00 h 0,00 h 4,6 km/h (1 Bft)
18.08.2010 05:00 21,1 C 15,4 C 0,0 UV-I 0,0 C 64 % 89 % 0 % 1006,6 hPa 0,0 l/m 4,0 km/h (1 Bft) 0,00 h 0,00 h 4,9 km/h (1 Bft)
18.08.2010 06:00 21,0 C 15,2 C 0,0 UV-I 0,0 C 64 % 91 % 0 % 1006,3 hPa 0,0 l/m 1,9 km/h (1 Bft) 0,00 h 0,00 h 2,2 km/h (1 Bft)
18.08.2010 07:00 21,1 C 15,3 C 0,1 UV-I 0,0 C 65 % 91 % 0 % 1006,2 hPa 0,0 l/m 3,6 km/h (1 Bft) 0,00 h 0,00 h 4,1 km/h (1 Bft)
18.08.2010 08:00 21,0 C 15,6 C 0,2 UV-I 0,1 C 65 % 91 % 2 % 1006,2 hPa 0,0 l/m 4,2 km/h (1 Bft) 0,00 h 0,00 h 5,5 km/h (1 Bft)
18.08.2010 09:00 20,8 C 15,9 C 0,9 UV-I 0,4 C 66 % 91 % 10 % 1006,0 hPa 0,0 l/m 5,0 km/h (1 Bft) 0,00 h 0,00 h 5,5 km/h (1 Bft)
18.08.2010 10:00 20,8 C 16,3 C 1,8 UV-I 0,7 C 67 % 91 % 21 % 1006,3 hPa 0,0 l/m 5,7 km/h (1 Bft) 0,00 h 0,00 h 7,8 km/h (2 Bft)
18.08.2010 11:00 21,2 C 18,2 C 5,2 UV-I 3,7 C 67 % 86 % 87 % 1006,4 hPa 0,0 l/m 6,4 km/h (2 Bft) 0,53 h 0,00 h 7,3 km/h (2 Bft)
18.08.2010 12:00 21,6 C 19,2 C 4,2 UV-I 3,1 C 66 % 82 % 80 % 1006,6 hPa 0,0 l/m 5,9 km/h (2 Bft) 0,40 h 0,00 h 7,4 km/h (2 Bft)
18.08.2010 13:00 22,2 C 20,3 C 6,9 UV-I 4,3 C 66 % 79 % 99 % 1006,8 hPa 0,0 l/m 7,6 km/h (2 Bft) 1,00 h 0,00 h 9,1 km/h (2 Bft)
18.08.2010 14:00 23,1 C 21,3 C 8,4 UV-I 4,7 C 63 % 74 % 100 % 1007,7 hPa 0,0 l/m 7,4 km/h (2 Bft) 1,00 h 0,00 h 8,7 km/h (2 Bft)
18.08.2010 15:00 24,3 C 22,3 C 7,3 UV-I 4,0 C 59 % 69 % 95 % 1007,7 hPa 0,0 l/m 7,6 km/h (2 Bft) 0,97 h 0,00 h 9,2 km/h (2 Bft)
18.08.2010 16:00 24,0 C 19,6 C 1,3 UV-I 0,3 C 58 % 77 % 9 % 1007,5 hPa 0,7 l/m 5,8 km/h (2 Bft) 0,00 h 0,47 h 6,2 km/h (2 Bft)
18.08.2010 17:00 23,1 C 17,8 C 1,5 UV-I 0,5 C 62 % 88 % 13 % 1007,5 hPa 0,0 l/m 2,9 km/h (1 Bft) 0,00 h 0,00 h 3,8 km/h (1 Bft)
18.08.2010 18:00 22,9 C 18,6 C 1,8 UV-I 0,7 C 63 % 84 % 19 % 1007,8 hPa 0,0 l/m 3,9 km/h (1 Bft) 0,00 h 0,00 h 5,4 km/h (1 Bft)
18.08.2010 19:00 22,8 C 18,0 C 1,1 UV-I 0,0 C 60 % 74 % 0 % 1008,0 hPa 0,0 l/m 5,1 km/h (1 Bft) 0,00 h 0,00 h 5,6 km/h (1 Bft)
18.08.2010 20:00 22,3 C 17,0 C 0,4 UV-I 0,0 C 58 % 72 % 0 % 1008,1 hPa 0,0 l/m 2,4 km/h (1 Bft) 0,00 h 0,00 h 3,8 km/h (1 Bft)
18.08.2010 21:00 21,9 C 16,4 C 0,1 UV-I 0,0 C 58 % 72 % 0 % 1008,9 hPa 0,0 l/m 0,6 km/h (0 Bft) 0,00 h 0,00 h 0,7 km/h (0 Bft)
18.08.2010 22:00 21,8 C 16,1 C 0,1 UV-I 0,0 C 56 % 74 % 0 % 1009,6 hPa 0,0 l/m 0,1 km/h (0 Bft) 0,00 h 0,00 h 0,2 km/h (0 Bft)
18.08.2010 23:00 21,6 C 15,6 C 0,1 UV-I 0,0 C 56 % 76 % 0 % 1010,1 hPa 0,0 l/m 0,1 km/h (0 Bft) 0,00 h 0,00 h 0,4 km/h (0 Bft)
19.08.2010 00:00 21,5 C 15,1 C 0,1 UV-I 0,0 C 55 % 77 % 0 % 1010,5 hPa 0,0 l/m 0,0 km/h (0 Bft) 0,00 h 0,00 h 0,1 km/h (0 Bft)
19.08.2010 01:00 21,3 C 15,0 C 0,1 UV-I 0,0 C 54 % 76 % 0 % 1011,0 hPa 0,0 l/m 0,1 km/h (0 Bft) 0,00 h 0,00 h 0,3 km/h (0 Bft)
19.08.2010 02:00 21,1 C 15,0 C 0,1 UV-I 0,0 C 54 % 76 % 0 % 1011,0 hPa 0,0 l/m 0,4 km/h (0 Bft) 0,00 h 0,00 h 0,2 km/h (0 Bft)
19.08.2010 03:00 20,9 C 14,5 C 0,1 UV-I 0,0 C 55 % 79 % 0 % 1011,4 hPa 0,0 l/m 1,0 km/h (0 Bft) 0,00 h 0,00 h 1,8 km/h (1 Bft)
19.08.2010 04:00 20,6 C 13,7 C 0,1 UV-I 0,0 C 55 % 81 % 0 % 1011,6 hPa 0,0 l/m 1,4 km/h (1 Bft) 0,00 h 0,00 h 2,0 km/h (1 Bft)
19.08.2010 05:00 20,4 C 13,1 C 0,1 UV-I 0,0 C 55 % 83 % 0 % 1011,8 hPa 0,0 l/m 1,2 km/h (1 Bft) 0,00 h 0,00 h 1,7 km/h (1 Bft)
19.08.2010 06:00 20,2 C 12,7 C 0,2 UV-I 0,0 C 56 % 86 % 0 % 1012,2 hPa 0,0 l/m 1,9 km/h (1 Bft) 0,00 h 0,00 h 3,8 km/h (1 Bft)
19.08.2010 07:00 19,9 C 13,0 C 0,6 UV-I 0,0 C 57 % 87 % 0 % 1012,7 hPa 0,0 l/m 3,8 km/h (1 Bft) 0,00 h 0,00 h 5,8 km/h (2 Bft)
19.08.2010 08:00 19,8 C 14,5 C 1,6 UV-I 1,7 C 60 % 85 % 41 % 1013,4 hPa 0,0 l/m 5,5 km/h (1 Bft) 0,27 h 0,00 h 7,0 km/h (2 Bft)
19.08.2010 09:00 20,0 C 16,1 C 4,2 UV-I 4,7 C 60 % 80 % 100 % 1014,1 hPa 0,0 l/m 8,1 km/h (2 Bft) 1,00 h 0,00 h 10,3 km/h (2 Bft)
19.08.2010 10:00 20,1 C 17,5 C 9,7 UV-I 5,4 C 61 % 77 % 100 % 1014,6 hPa 0,0 l/m 9,1 km/h (2 Bft) 1,00 h 0,00 h 9,7 km/h (2 Bft)
19.08.2010 11:00 20,5 C 18,8 C 8,4 UV-I 5,4 C 61 % 72 % 100 % 1015,0 hPa 0,0 l/m 7,2 km/h (2 Bft) 0,95 h 0,00 h 8,5 km/h (2 Bft)
19.08.2010 12:00 21,0 C 19,4 C 4,6 UV-I 3,8 C 59 % 69 % 96 % 1015,7 hPa 0,0 l/m 6,9 km/h (2 Bft) 0,95 h 0,00 h 7,5 km/h (2 Bft)
19.08.2010 13:00 21,7 C 20,4 C 6,6 UV-I 3,9 C 58 % 64 % 97 % 1016,4 hPa 0,0 l/m 5,4 km/h (1 Bft) 0,87 h 0,00 h 7,1 km/h (2 Bft)
19.08.2010 14:00 22,3 C 21,1 C 7,0 UV-I 3,9 C 55 % 60 % 95 % 1017,4 hPa 0,0 l/m 5,8 km/h (2 Bft) 0,82 h 0,00 h 6,5 km/h (2 Bft)
19.08.2010 15:00 23,6 C 22,1 C 9,3 UV-I 4,9 C 51 % 56 % 100 % 1018,7 hPa 0,0 l/m 6,2 km/h (2 Bft) 0,92 h 0,00 h 7,7 km/h (2 Bft)
19.08.2010 16:00 25,5 C 22,9 C 9,2 UV-I 4,8 C 45 % 51 % 100 % 1020,2 hPa 0,0 l/m 5,0 km/h (1 Bft) 0,98 h 0,00 h 6,3 km/h (2 Bft)
19.08.2010 17:00 26,0 C 23,0 C 5,1 UV-I 3,6 C 43 % 50 % 92 % 1019,9 hPa 0,0 l/m 2,8 km/h (1 Bft) 0,73 h 0,00 h 3,1 km/h (1 Bft)
19.08.2010 18:00 25,1 C 22,0 C 2,6 UV-I 0,9 C 45 % 54 % 26 % 1018,1 hPa 0,0 l/m 1,6 km/h (1 Bft) 0,00 h 0,00 h 2,8 km/h (1 Bft)
19.08.2010 19:00 24,1 C 21,2 C 1,1 UV-I 0,0 C 47 % 56 % 0 % 1017,2 hPa 0,0 l/m 0,3 km/h (0 Bft) 0,00 h 0,00 h 0,5 km/h (0 Bft)
19.08.2010 20:00 23,5 C 20,0 C 0,4 UV-I 0,0 C 49 % 61 % 0 % 1017,3 hPa 0,0 l/m 0,0 km/h (0 Bft) 0,00 h 0,00 h 0,1 km/h (0 Bft)
19.08.2010 21:00 22,9 C 18,4 C 0,1 UV-I 0,0 C 53 % 68 % 0 % 1017,6 hPa 0,0 l/m 0,1 km/h (0 Bft) 0,00 h 0,00 h 0,1 km/h (0 Bft)
19.08.2010 22:00 22,5 C 17,1 C 0,0 UV-I 0,0 C 54 % 74 % 0 % 1018,2 hPa 0,0 l/m 0,6 km/h (0 Bft) 0,00 h 0,00 h 0,7 km/h (0 Bft)
19.08.2010 23:00 22,2 C 16,5 C 0,0 UV-I 0,0 C 56 % 77 % 0 % 1018,3 hPa 0,0 l/m 0,2 km/h (0 Bft) 0,00 h 0,00 h 0,2 km/h (0 Bft)
20.08.2010 00:00 22,1 C 15,4 C 0,0 UV-I 0,0 C 56 % 81 % 0 % 1018,6 hPa 0,0 l/m 0,0 km/h (0 Bft) 0,00 h 0,00 h 0,0 km/h (0 Bft)
20.08.2010 01:00 22,0 C 14,2 C 0,0 UV-I 0,0 C 57 % 85 % 0 % 1018,5 hPa 0,0 l/m 0,1 km/h (0 Bft) 0,00 h 0,00 h 0,0 km/h (0 Bft)
20.08.2010 02:00 21,7 C 13,9 C 0,0 UV-I 0,0 C 57 % 86 % 0 % 1018,5 hPa 0,0 l/m 2,2 km/h (1 Bft) 0,00 h 0,00 h 3,6 km/h (1 Bft)
20.08.2010 03:00 21,3 C 13,7 C 0,0 UV-I 0,0 C 57 % 86 % 0 % 1018,3 hPa 0,0 l/m 2,3 km/h (1 Bft) 0,00 h 0,00 h 3,9 km/h (1 Bft)
20.08.2010 04:00 21,1 C 13,0 C 0,1 UV-I 0,0 C 57 % 88 % 0 % 1018,2 hPa 0,0 l/m 1,2 km/h (1 Bft) 0,00 h 0,00 h 3,7 km/h (1 Bft)
20.08.2010 05:00 20,9 C 12,6 C 0,1 UV-I 0,0 C 57 % 88 % 0 % 1018,2 hPa 0,0 l/m 0,7 km/h (0 Bft) 0,00 h 0,03 h 2,1 km/h (1 Bft)
20.08.2010 06:00 20,8 C 12,3 C 0,2 UV-I 0,0 C 57 % 89 % 0 % 1018,4 hPa 0,0 l/m 1,5 km/h (1 Bft) 0,00 h 0,00 h 3,2 km/h (1 Bft)
20.08.2010 07:00 20,6 C 12,9 C 0,7 UV-I 0,0 C 57 % 90 % 0 % 1018,7 hPa 0,0 l/m 4,1 km/h (1 Bft) 0,00 h 0,00 h 6,2 km/h (2 Bft)
20.08.2010 08:00 20,6 C 14,5 C 1,5 UV-I 1,2 C 58 % 87 % 28 % 1018,8 hPa 0,0 l/m 6,0 km/h (2 Bft) 0,17 h 0,00 h 8,3 km/h (2 Bft)
20.08.2010 09:00 20,7 C 17,5 C 3,9 UV-I 5,3 C 59 % 80 % 100 % 1019,0 hPa 0,0 l/m 6,4 km/h (2 Bft) 0,87 h 0,00 h 9,1 km/h (2 Bft)
20.08.2010 10:00 21,0 C 20,5 C 9,8 UV-I 5,9 C 60 % 73 % 100 % 1019,3 hPa 0,0 l/m 5,6 km/h (1 Bft) 0,77 h 0,00 h 8,2 km/h (2 Bft)
20.08.2010 11:00 21,5 C 23,3 C 10,6 UV-I 5,9 C 61 % 66 % 100 % 1019,6 hPa 0,0 l/m 6,0 km/h (2 Bft) 0,87 h 0,00 h 9,6 km/h (2 Bft)
20.08.2010 12:00 22,1 C 25,4 C 5,1 UV-I 5,7 C 62 % 60 % 100 % 1019,5 hPa 0,0 l/m 5,8 km/h (2 Bft) 0,93 h 0,00 h 8,2 km/h (2 Bft)
20.08.2010 13:00 23,0 C 26,9 C 10,8 UV-I 5,4 C 60 % 52 % 100 % 1019,8 hPa 0,0 l/m 4,9 km/h (1 Bft) 0,80 h 0,00 h 6,7 km/h (2 Bft)
20.08.2010 14:00 24,5 C 28,0 C 11,9 UV-I 5,4 C 55 % 47 % 100 % 1021,9 hPa 0,0 l/m 6,5 km/h (2 Bft) 0,77 h 0,00 h 8,7 km/h (2 Bft)
20.08.2010 15:00 26,5 C 28,9 C 11,8 UV-I 5,2 C 50 % 46 % 100 % 1022,3 hPa 0,0 l/m 4,9 km/h (1 Bft) 0,67 h 0,00 h 8,6 km/h (2 Bft)
20.08.2010 16:00 28,1 C 29,4 C 10,3 UV-I 4,8 C 46 % 45 % 100 % 1023,2 hPa 0,0 l/m 4,5 km/h (1 Bft) 0,77 h 0,00 h 6,2 km/h (2 Bft)
20.08.2010 17:00 28,6 C 29,5 C 7,1 UV-I 4,6 C 45 % 43 % 100 % 1023,0 hPa 0,0 l/m 3,9 km/h (1 Bft) 0,67 h 0,00 h 5,4 km/h (1 Bft)
20.08.2010 18:00 27,3 C 28,4 C 2,3 UV-I 0,5 C 48 % 46 % 14 % 1020,9 hPa 0,0 l/m 3,2 km/h (1 Bft) 0,03 h 0,00 h 5,4 km/h (1 Bft)
20.08.2010 19:00 26,4 C 27,3 C 1,2 UV-I 0,0 C 50 % 50 % 0 % 1020,3 hPa 0,0 l/m 0,6 km/h (0 Bft) 0,00 h 0,00 h 1,0 km/h (0 Bft)
20.08.2010 20:00 25,7 C 25,7 C 0,3 UV-I 0,0 C 52 % 56 % 0 % 1020,2 hPa 0,0 l/m 0,0 km/h (0 Bft) 0,00 h 0,00 h 0,3 km/h (0 Bft)
20.08.2010 21:00 25,1 C 23,6 C 0,1 UV-I 0,0 C 55 % 65 % 0 % 1020,3 hPa 0,0 l/m 0,1 km/h (0 Bft) 0,00 h 0,00 h 0,9 km/h (0 Bft)
20.08.2010 22:00 24,5 C 21,6 C 0,1 UV-I 0,0 C 58 % 71 % 0 % 1020,7 hPa 0,0 l/m 0,0 km/h (0 Bft) 0,00 h 0,00 h 0,0 km/h (0 Bft)
20.08.2010 23:00 24,1 C 20,7 C 0,1 UV-I 0,0 C 59 % 74 % 0 % 1021,0 hPa 0,0 l/m 0,0 km/h (0 Bft) 0,00 h 0,00 h 0,2 km/h (0 Bft)
21.08.2010 00:00 23,9 C 20,6 C 0,1 UV-I 0,0 C 60 % 74 % 0 % 1021,0 hPa 0,0 l/m 0,2 km/h (0 Bft) 0,00 h 0,00 h 0,6 km/h (0 Bft)
21.08.2010 01:00 23,7 C 20,3 C 0,1 UV-I 0,0 C 60 % 75 % 0 % 1021,1 hPa 0,0 l/m 0,1 km/h (0 Bft) 0,00 h 0,00 h 0,3 km/h (0 Bft)
21.08.2010 02:00 23,6 C 19,8 C 0,0 UV-I 0,0 C 60 % 78 % 0 % 1021,6 hPa 0,0 l/m 0,6 km/h (0 Bft) 0,00 h 0,00 h 1,8 km/h (1 Bft)
21.08.2010 03:00 23,4 C 18,6 C 0,1 UV-I 0,0 C 61 % 82 % 0 % 1021,8 hPa 0,0 l/m 0,0 km/h (0 Bft) 0,00 h 0,00 h 0,0 km/h (0 Bft)
21.08.2010 04:00 23,3 C 17,6 C 0,1 UV-I 0,0 C 62 % 86 % 0 % 1021,8 hPa 0,0 l/m 0,0 km/h (0 Bft) 0,00 h 0,00 h 0,0 km/h (0 Bft)
21.08.2010 05:00 23,2 C 16,8 C 0,1 UV-I 0,0 C 62 % 88 % 0 % 1021,7 hPa 0,0 l/m 0,0 km/h (0 Bft) 0,00 h 0,00 h 0,0 km/h (0 Bft)
21.08.2010 06:00 23,1 C 16,2 C 0,1 UV-I 0,0 C 62 % 90 % 0 % 1022,1 hPa 0,0 l/m 0,0 km/h (0 Bft) 0,00 h 0,00 h 0,0 km/h (0 Bft)
21.08.2010 07:00 23,0 C 16,3 C 0,7 UV-I 0,0 C 62 % 91 % 0 % 1022,6 hPa 0,0 l/m 0,0 km/h (0 Bft) 0,00 h 0,03 h 0,0 km/h (0 Bft)
21.08.2010 08:00 23,0 C 18,1 C 1,6 UV-I 2,2 C 63 % 91 % 43 % 1023,0 hPa 0,0 l/m 0,2 km/h (0 Bft) 0,23 h 0,00 h 0,6 km/h (0 Bft)
21.08.2010 09:00 23,2 C 22,1 C 3,7 UV-I 7,3 C 64 % 80 % 100 % 1023,2 hPa 0,0 l/m 1,3 km/h (1 Bft) 0,60 h 0,00 h 3,3 km/h (1 Bft)
21.08.2010 10:00 23,4 C 24,4 C 10,3 UV-I 7,4 C 64 % 70 % 100 % 1023,2 hPa 0,0 l/m 2,1 km/h (1 Bft) 0,53 h 0,00 h 4,5 km/h (1 Bft)
21.08.2010 11:00 23,8 C 25,9 C 10,9 UV-I 7,0 C 64 % 65 % 100 % 1023,4 hPa 0,0 l/m 3,6 km/h (1 Bft) 0,58 h 0,00 h 5,1 km/h (1 Bft)
21.08.2010 12:00 24,1 C 26,7 C 5,6 UV-I 5,9 C 63 % 62 % 100 % 1023,4 hPa 0,0 l/m 4,5 km/h (1 Bft) 0,97 h 0,00 h 6,6 km/h (2 Bft)
21.08.2010 13:00 24,7 C 27,4 C 8,5 UV-I 5,6 C 62 % 59 % 100 % 1023,8 hPa 0,0 l/m 4,6 km/h (1 Bft) 0,90 h 0,00 h 6,9 km/h (2 Bft)
21.08.2010 14:00 25,5 C 27,7 C 8,2 UV-I 4,2 C 60 % 59 % 97 % 1024,0 hPa 0,0 l/m 4,0 km/h (1 Bft) 0,70 h 0,00 h 5,2 km/h (1 Bft)
21.08.2010 15:00 26,5 C 28,4 C 8,0 UV-I 4,5 C 58 % 57 % 99 % 1024,6 hPa 0,0 l/m 5,1 km/h (1 Bft) 0,93 h 0,00 h 6,9 km/h (2 Bft)
21.08.2010 16:00 27,6 C 28,5 C 7,2 UV-I 3,9 C 56 % 56 % 92 % 1025,0 hPa 0,0 l/m 4,9 km/h (1 Bft) 0,55 h 0,00 h 5,1 km/h (1 Bft)
21.08.2010 17:00 28,2 C 28,9 C 5,3 UV-I 4,2 C 54 % 54 % 98 % 1024,5 hPa 0,0 l/m 4,4 km/h (1 Bft) 0,97 h 0,00 h 4,7 km/h (1 Bft)
21.08.2010 18:00 27,4 C 28,3 C 2,5 UV-I 1,0 C 55 % 55 % 27 % 1023,0 hPa 0,0 l/m 4,3 km/h (1 Bft) 0,13 h 0,00 h 5,3 km/h (1 Bft)
21.08.2010 19:00 26,7 C 27,4 C 1,2 UV-I 0,0 C 56 % 58 % 1 % 1022,2 hPa 0,0 l/m 1,0 km/h (0 Bft) 0,00 h 0,00 h 1,1 km/h (0 Bft)
21.08.2010 20:00 26,1 C 25,7 C 0,3 UV-I 0,0 C 58 % 66 % 0 % 1021,5 hPa 0,0 l/m 0,1 km/h (0 Bft) 0,00 h 0,00 h 0,0 km/h (0 Bft)
21.08.2010 21:00 25,6 C 23,5 C 0,1 UV-I 0,0 C 61 % 74 % 0 % 1021,5 hPa 0,0 l/m 0,0 km/h (0 Bft) 0,00 h 0,00 h 0,0 km/h (0 Bft)
21.08.2010 22:00 25,1 C 21,7 C 0,1 UV-I 0,0 C 63 % 81 % 0 % 1020,9 hPa 0,0 l/m 0,0 km/h (0 Bft) 0,00 h 0,00 h 0,4 km/h (0 Bft)
21.08.2010 23:00 24,8 C 20,8 C 0,1 UV-I 0,0 C 64 % 84 % 0 % 1020,7 hPa 0,0 l/m 1,3 km/h (1 Bft) 0,00 h 0,00 h 1,2 km/h (1 Bft)
22.08.2010 00:00 24,6 C 20,5 C 0,1 UV-I 0,0 C 65 % 85 % 0 % 1020,4 hPa 0,0 l/m 0,3 km/h (0 Bft) 0,00 h 0,00 h 0,7 km/h (0 Bft)
22.08.2010 01:00 24,4 C 20,4 C 0,1 UV-I 0,0 C 65 % 84 % 0 % 1019,9 hPa 0,0 l/m 0,7 km/h (0 Bft) 0,00 h 0,00 h 1,6 km/h (1 Bft)
22.08.2010 02:00 24,3 C 20,5 C 0,1 UV-I 0,0 C 65 % 84 % 0 % 1019,9 hPa 0,0 l/m 0,8 km/h (0 Bft) 0,00 h 0,00 h 1,0 km/h (0 Bft)
22.08.2010 03:00 24,2 C 19,5 C 0,1 UV-I 0,0 C 65 % 86 % 0 % 1019,9 hPa 0,0 l/m 0,0 km/h (0 Bft) 0,00 h 0,00 h 0,0 km/h (0 Bft)
22.08.2010 04:00 24,1 C 18,7 C 0,1 UV-I 0,0 C 66 % 90 % 0 % 1019,6 hPa 0,0 l/m 0,0 km/h (0 Bft) 0,00 h 0,03 h 0,0 km/h (0 Bft)
22.08.2010 05:00 24,0 C 18,6 C 0,1 UV-I 0,0 C 67 % 92 % 0 % 1019,1 hPa 0,0 l/m 0,0 km/h (0 Bft) 0,00 h 0,00 h 0,2 km/h (0 Bft)
22.08.2010 06:00 23,8 C 18,8 C 0,1 UV-I 0,0 C 67 % 92 % 0 % 1018,7 hPa 0,0 l/m 0,1 km/h (0 Bft) 0,00 h 0,00 h 0,2 km/h (0 Bft)
22.08.2010 07:00 23,8 C 19,2 C 0,5 UV-I 0,1 C 67 % 91 % 2 % 1018,6 hPa 0,0 l/m 0,6 km/h (0 Bft) 0,00 h 0,00 h 0,9 km/h (0 Bft)
22.08.2010 08:00 24,0 C 20,3 C 1,1 UV-I 0,5 C 67 % 88 % 15 % 1018,6 hPa 0,0 l/m 2,2 km/h (1 Bft) 0,00 h 0,00 h 3,6 km/h (1 Bft)
22.08.2010 09:00 24,3 C 21,6 C 2,4 UV-I 1,7 C 67 % 84 % 48 % 1018,3 hPa 0,0 l/m 0,9 km/h (0 Bft) 0,00 h 0,00 h 1,3 km/h (1 Bft)
22.08.2010 10:00 24,6 C 22,7 C 3,9 UV-I 2,5 C 66 % 78 % 73 % 1018,1 hPa 0,0 l/m 0,9 km/h (0 Bft) 0,50 h 0,00 h 1,6 km/h (1 Bft)
22.08.2010 11:00 24,8 C 23,3 C 3,2 UV-I 2,0 C 64 % 75 % 56 % 1018,2 hPa 0,0 l/m 1,3 km/h (1 Bft) 0,17 h 0,00 h 1,6 km/h (1 Bft)
22.08.2010 12:00 25,0 C 24,6 C 5,7 UV-I 4,9 C 64 % 71 % 100 % 1018,1 hPa 0,0 l/m 2,5 km/h (1 Bft) 1,00 h 0,00 h 3,5 km/h (1 Bft)
22.08.2010 13:00 25,4 C 25,5 C 6,9 UV-I 4,8 C 63 % 67 % 100 % 1017,4 hPa 0,0 l/m 3,5 km/h (1 Bft) 1,00 h 0,00 h 4,6 km/h (1 Bft)
22.08.2010 14:00 25,8 C 25,7 C 4,3 UV-I 2,7 C 62 % 68 % 76 % 1016,7 hPa 0,0 l/m 1,1 km/h (1 Bft) 0,27 h 0,00 h 1,4 km/h (1 Bft)
22.08.2010 15:00 25,9 C 25,7 C 3,3 UV-I 1,9 C 63 % 69 % 56 % 1016,0 hPa 0,0 l/m 0,9 km/h (0 Bft) 0,00 h 0,00 h 2,1 km/h (1 Bft)
22.08.2010 16:00 25,8 C 25,2 C 2,4 UV-I 1,2 C 63 % 70 % 35 % 1015,0 hPa 0,0 l/m 1,7 km/h (1 Bft) 0,00 h 0,00 h 1,3 km/h (1 Bft)
22.08.2010 17:00 25,7 C 24,4 C 1,5 UV-I 0,4 C 63 % 73 % 13 % 1014,6 hPa 0,0 l/m 4,7 km/h (1 Bft) 0,00 h 0,05 h 5,1 km/h (1 Bft)
22.08.2010 18:00 25,5 C 23,1 C 0,3 UV-I 0,0 C 64 % 80 % 0 % 1013,9 hPa 0,9 l/m 0,5 km/h (0 Bft) 0,00 h 0,60 h 0,5 km/h (0 Bft)
22.08.2010 19:00 25,1 C 21,3 C 0,1 UV-I 0,0 C 66 % 87 % 0 % 1013,3 hPa 1,2 l/m 1,8 km/h (1 Bft) 0,00 h 0,90 h 2,1 km/h (1 Bft)
22.08.2010 20:00 24,9 C 20,6 C 0,2 UV-I 0,0 C 68 % 91 % 0 % 1013,2 hPa 0,0 l/m 0,4 km/h (0 Bft) 0,00 h 0,00 h 0,4 km/h (0 Bft)
22.08.2010 21:00 24,7 C 20,1 C 0,1 UV-I 0,0 C 68 % 92 % 0 % 1013,0 hPa 0,0 l/m 0,1 km/h (0 Bft) 0,00 h 0,00 h 0,2 km/h (0 Bft)
22.08.2010 22:00 24,5 C 19,8 C 0,1 UV-I 0,0 C 68 % 93 % 0 % 1012,6 hPa 0,0 l/m 0,0 km/h (0 Bft) 0,00 h 0,00 h 0,0 km/h (0 Bft)
22.08.2010 23:00 24,4 C 19,4 C 0,1 UV-I 0,0 C 69 % 93 % 0 % 1012,2 hPa 0,0 l/m 0,0 km/h (0 Bft) 0,00 h 0,00 h 0,1 km/h (0 Bft)
Min-Datum _ 19.08.10 20.08.10 16.08.10 16.08.10 19.08.10 20.08.10 16.08.10 16.08.10 - 16.08.10 - - 16.08.10
_ Min-Zeit 07:56 06:16 00:08 00:00 17:02 17:06 00:00 04:22 - 00:25 - - 00:05
Minimum _ 19,7 C 12,3 C 0,0 UV-I 0,0 C 43 % 42 % 0 % 1005,7 hPa - 0,0 km/h (0 Bft) - - 0,0 km/h (0 Bft)
Max-Datum _ 20.08.10 20.08.10 19.08.10 21.08.10 17.08.10 16.08.10 18.08.10 21.08.10 17.08.10 17.08.10 16.08.10 16.08.10 17.08.10
_ Max-Zeit 17:14 17:26 11:48 09:18 05:54 02:26 11:26 16:23 04:06 14:02 13:18 00:52 18:53
Maximum _ 28,8 C 29,7 C 12,5 UV-I 7,7 C 70 % 96 % 100 % 1025,2 hPa 19,0 l/m 14,5 km/h
SO (3 Bft)
0,03 h 0,03 h 44,1 km/h
SO (6 Bft)
Durchschnitt _ 23,0 C 19,1 C 2,1 UV-I 1,3 C 61 % 79 % 27 % 1014,0 hPa #28,2 l/m 2,9 km/h (1 Bft) #30:14 h #10:44 h 3,8 km/h (1 Bft)
© 2012 W. Hausmann